TimeCST,TemperatureF,Dew PointF,Humidity,Sea Level PressureIn,VisibilityMPH,Wind Direction,Wind SpeedMPH,Gust SpeedMPH,PrecipitationIn,Events,Conditions,WindDirDegrees,DateUTC
12:15 AM,48.7,44.8,86,29.95,10.0,Calm,Calm,-,N/A,,Mostly Cloudy,0,2012-12-07 06:15:00
12:35 AM,48.4,45.1,89,29.94,7.0,SSE,4.6,-,N/A,,Mostly Cloudy,150,2012-12-07 06:35:00
12:55 AM,48.2,45.1,89,29.94,7.0,SE,3.5,-,N/A,,Mostly Cloudy,140,2012-12-07 06:55:00
1:15 AM,48.4,45.5,90,29.93,7.0,Calm,Calm,-,N/A,,Scattered Clouds,0,2012-12-07 07:15:00
1:35 AM,47.7,45.0,90,29.93,7.0,North,3.5,-,N/A,,Scattered Clouds,10,2012-12-07 07:35:00
1:55 AM,46.9,44.6,92,29.93,5.0,SE,3.5,-,N/A,,Mostly Cloudy,130,2012-12-07 07:55:00
2:15 AM,48.6,46.4,92,29.94,7.0,Calm,Calm,-,N/A,,Overcast,0,2012-12-07 08:15:00
2:35 AM,48.7,46.4,92,29.93,5.0,Calm,Calm,-,N/A,,Overcast,0,2012-12-07 08:35:00
2:55 AM,49.1,46.8,92,29.93,5.0,Calm,Calm,-,N/A,,Overcast,0,2012-12-07 08:55:00
3:15 AM,49.3,47.1,92,29.92,5.0,Calm,Calm,-,N/A,,Overcast,0,2012-12-07 09:15:00
3:35 AM,50.2,47.8,92,29.92,4.0,Calm,Calm,-,N/A,Rain,Light Rain,0,2012-12-07 09:35:00
3:55 AM,50.2,48.2,93,29.91,4.0,Calm,Calm,-,N/A,,Overcast,0,2012-12-07 09:55:00
4:15 AM,50.9,48.9,93,29.91,3.0,SSE,3.5,-,N/A,Rain,Rain,160,2012-12-07 10:15:00
4:35 AM,50.9,49.1,94,29.90,2.5,Calm,Calm,-,N/A,,Overcast,0,2012-12-07 10:35:00
4:55 AM,50.9,49.1,94,29.90,2.0,SE,4.6,-,N/A,,Overcast,130,2012-12-07 10:55:00
5:15 AM,50.9,49.1,94,29.90,1.8,ESE,4.6,-,0.01,Rain,Light Rain,120,2012-12-07 11:15:00
5:35 AM,50.9,49.1,94,29.90,1.8,East,3.5,-,0.02,,Overcast,100,2012-12-07 11:35:00
5:55 AM,50.5,49.1,95,29.91,2.0,ESE,3.5,-,0.02,Rain,Rain,120,2012-12-07 11:55:00
6:15 AM,50.9,49.1,94,29.91,2.0,ESE,4.6,-,N/A,,Overcast,110,2012-12-07 12:15:00
6:35 AM,50.9,49.3,94,29.90,2.0,ESE,3.5,-,N/A,,Overcast,110,2012-12-07 12:35:00
6:55 AM,50.7,49.1,94,29.90,2.0,ESE,4.6,-,N/A,,Overcast,120,2012-12-07 12:55:00
7:15 AM,50.9,49.3,94,29.90,2.0,ESE,3.5,-,N/A,,Overcast,120,2012-12-07 13:15:00
7:35 AM,51.1,49.5,94,29.90,2.5,Calm,Calm,-,N/A,,Overcast,0,2012-12-07 13:35:00
7:55 AM,51.3,49.6,94,29.90,1.8,East,3.5,-,N/A,,Overcast,100,2012-12-07 13:55:00
8:15 AM,51.8,50.2,94,29.90,2.0,East,3.5,-,N/A,,Overcast,90,2012-12-07 14:15:00
8:35 AM,51.8,50.2,94,29.90,2.0,East,3.5,-,N/A,,Overcast,90,2012-12-07 14:35:00
8:55 AM,52.0,50.4,94,29.90,1.8,East,4.6,-,N/A,,Overcast,100,2012-12-07 14:55:00
9:15 AM,52.7,50.9,94,29.90,2.0,ESE,3.5,-,N/A,,Overcast,120,2012-12-07 15:15:00
9:35 AM,52.9,51.3,94,29.90,2.5,ESE,4.6,-,N/A,,Overcast,110,2012-12-07 15:35:00
9:55 AM,53.6,51.8,94,29.89,3.0,ESE,5.8,-,N/A,,Overcast,120,2012-12-07 15:55:00
10:15 AM,54.7,52.7,93,29.89,4.0,ESE,5.8,-,N/A,,Overcast,120,2012-12-07 16:15:00
10:35 AM,55.0,52.7,92,29.88,7.0,ESE,8.1,-,N/A,,Overcast,120,2012-12-07 16:35:00
10:55 AM,55.4,52.7,91,29.87,7.0,SE,6.9,-,N/A,,Overcast,130,2012-12-07 16:55:00
11:15 AM,55.4,52.9,91,29.87,7.0,SSE,8.1,-,N/A,,Overcast,160,2012-12-07 17:15:00
11:35 AM,55.4,53.1,92,29.85,2.0,South,5.8,-,N/A,,Overcast,170,2012-12-07 17:35:00
11:55 AM,55.4,53.6,94,29.85,2.5,SSW,6.9,-,N/A,,Overcast,200,2012-12-07 17:55:00
12:15 PM,55.8,53.6,92,29.84,4.0,SSW,6.9,-,N/A,,Overcast,210,2012-12-07 18:15:00
12:35 PM,56.3,53.6,91,29.83,4.0,SW,6.9,-,N/A,,Overcast,220,2012-12-07 18:35:00
12:55 PM,57.2,53.6,88,29.82,5.0,SW,6.9,-,N/A,,Overcast,220,2012-12-07 18:55:00
1:15 PM,57.7,53.6,86,29.82,5.0,SW,6.9,-,N/A,,Overcast,220,2012-12-07 19:15:00
1:35 PM,58.1,53.6,85,29.81,7.0,SW,6.9,-,N/A,,Overcast,220,2012-12-07 19:35:00
1:55 PM,58.3,52.9,82,29.81,7.0,SW,8.1,-,N/A,,Overcast,230,2012-12-07 19:55:00
2:15 PM,59.0,52.9,80,29.81,10.0,SW,6.9,-,N/A,,Scattered Clouds,230,2012-12-07 20:15:00
2:35 PM,58.6,52.3,80,29.81,10.0,WSW,6.9,-,N/A,,Scattered Clouds,240,2012-12-07 20:35:00
2:55 PM,59.0,52.5,79,29.81,10.0,SW,5.8,-,N/A,,Mostly Cloudy,230,2012-12-07 20:55:00
3:15 PM,59.0,52.7,80,29.81,10.0,WSW,5.8,-,N/A,,Scattered Clouds,240,2012-12-07 21:15:00
3:35 PM,58.6,52.7,81,29.82,10.0,West,4.6,-,N/A,,Scattered Clouds,260,2012-12-07 21:35:00
3:55 PM,58.3,52.7,82,29.83,10.0,WSW,5.8,-,N/A,,Mostly Cloudy,250,2012-12-07 21:55:00
4:15 PM,57.9,51.8,80,29.83,10.0,WSW,5.8,-,N/A,,Overcast,250,2012-12-07 22:15:00
4:35 PM,56.7,51.1,82,29.83,10.0,WSW,4.6,-,N/A,,Overcast,250,2012-12-07 22:35:00
4:55 PM,55.8,50.2,82,29.83,10.0,WSW,3.5,-,N/A,,Scattered Clouds,240,2012-12-07 22:55:00
5:15 PM,55.0,49.8,83,29.83,10.0,West,3.5,-,N/A,,Clear,270,2012-12-07 23:15:00
5:35 PM,53.6,49.8,87,29.84,10.0,Calm,Calm,-,N/A,,Scattered Clouds,0,2012-12-07 23:35:00
5:55 PM,53.2,49.8,88,29.85,10.0,Calm,Calm,-,N/A,,Mostly Cloudy,0,2012-12-07 23:55:00
6:15 PM,53.6,49.6,86,29.85,10.0,Calm,Calm,-,N/A,,Overcast,0,2012-12-08 00:15:00
6:35 PM,54.0,50.0,86,29.85,10.0,WNW,3.5,-,N/A,,Overcast,300,2012-12-08 00:35:00
6:55 PM,53.8,50.0,87,29.86,7.0,NNW,3.5,-,N/A,,Overcast,330,2012-12-08 00:55:00
7:15 PM,53.6,50.5,89,29.86,5.0,NNW,5.8,-,N/A,,Overcast,330,2012-12-08 01:15:00
7:35 PM,53.2,50.5,91,29.86,4.0,NNW,4.6,-,N/A,,Overcast,330,2012-12-08 01:35:00
7:55 PM,53.1,50.0,89,29.87,4.0,NNW,3.5,-,N/A,,Overcast,340,2012-12-08 01:55:00
8:15 PM,52.7,49.6,89,29.86,4.0,North,3.5,-,N/A,,Overcast,350,2012-12-08 02:15:00
8:35 PM,52.5,49.3,89,29.86,4.0,NNW,3.5,-,N/A,,Overcast,340,2012-12-08 02:35:00
8:55 PM,52.3,49.1,89,29.87,4.0,NNW,3.5,-,N/A,,Overcast,330,2012-12-08 02:55:00
9:15 PM,52.0,49.1,90,29.86,4.0,Calm,Calm,-,N/A,,Overcast,0,2012-12-08 03:15:00
9:35 PM,51.8,49.1,90,29.87,4.0,Calm,Calm,-,N/A,,Overcast,0,2012-12-08 03:35:00
9:55 PM,51.8,49.1,90,29.85,4.0,Calm,Calm,-,N/A,Rain,Light Rain,0,2012-12-08 03:55:00
10:15 PM,51.3,48.7,91,29.85,3.0,Calm,Calm,-,N/A,,Light Drizzle,0,2012-12-08 04:15:00
10:35 PM,51.3,49.1,92,29.87,3.0,Calm,Calm,-,N/A,,Overcast,0,2012-12-08 04:35:00
10:55 PM,51.3,49.1,92,29.86,3.0,Calm,Calm,-,N/A,Rain,Light Rain,0,2012-12-08 04:55:00
11:15 PM,50.9,48.7,92,29.85,2.0,Calm,Calm,-,N/A,Rain,Light Rain,0,2012-12-08 05:15:00
11:35 PM,50.5,48.7,94,29.85,2.0,NNW,3.5,-,N/A,Rain,Light Rain,340,2012-12-08 05:35:00
11:55 PM,50.4,48.6,94,29.85,1.8,Calm,Calm,-,N/A,Rain,Light Rain,0,2012-12-08 05:55:00